FW3197 Weather Reports


time (UTC)temp
C
wind
direction
speed
KPH
gust
KPH
rain 1hr
cm
rain 24hr
cm
rain mn
cm
humidity
%
barometer
mb
20260507110018 8 270 0.0 3.2 0.00 1.02 0.05 86 1007.1
20260507104519 8 278 0.0 4.8 0.00 1.02 0.05 87 1006.8
20260507103014 8 281 0.0 8.0 0.00 1.02 0.05 87 1006.6
20260507101521 8 307 0.0 4.8 0.00 1.02 0.05 87 1006.6
20260507100027 8 335 0.0 8.0 0.00 1.02 0.05 88 1006.6
20260507094510 8 260 0.0 4.8 0.00 1.02 0.05 89 1006.3
20260507093013 8 334 0.0 6.4 0.03 1.02 0.05 89 1006.6
20260507091509 8 354 0.0 3.2 0.03 1.02 0.05 89 1006.8
20260507090007 8 266 0.0 8.0 0.03 1.02 0.05 88 1006.3
20260507084503 8 274 0.0 4.8 0.03 1.02 0.05 89 1006.3
20260507083007 9 281 0.0 6.4 0.00 0.99 0.03 89 1006.1
20260507081501 9 278 0.0 4.8 0.00 0.99 0.03 88 1006.1
20260507080058 10 284 0.0 8.0 0.00 0.99 0.03 86 1006.3
20260507074556 10 267 1.6 9.7 0.00 0.99 0.03 86 1006.4
20260507073058 10 213 1.6 16.1 0.00 0.99 0.03 86 1006.1
20260507071552 10 287 0.0 12.9 0.00 0.99 0.03 87 1006.0
20260507070104 10 241 1.6 6.4 0.00 0.99 0.03 88 1005.6
20260507064553 10 268 0.0 9.7 0.00 0.99 0.03 89 1005.7
20260507063053 10 316 0.0 8.0 0.00 0.99 0.03 89 1005.5
20260507061546 11 226 1.6 6.4 0.00 0.99 0.03 90 1005.6
20260507060048 11 325 1.6 6.4 0.00 0.99 0.03 90 1005.8
20260507054544 11 307 1.6 9.7 0.00 0.99 0.03 91 1005.9
20260507053040 11 93 0.0 6.4 0.00 0.99 0.03 91 1006.0
20260507051539 11 280 0.0 3.2 0.03 0.99 0.03 91 1006.1
20260507050059 11 285 0.0 6.4 0.03 0.99 0.03 91 1005.9
20260507044546 12 75 0.0 6.4 0.03 0.99 0.03 91 1005.6
20260507043032 12 287 0.0 8.0 0.03 0.99 0.03 91 1005.8
20260507041529 12 316 1.6 8.0 0.00 0.97 0.00 91 1005.8
20260507040024 13 94 1.6 12.9 0.00 0.97 0.00 92 1005.5
20260507034519 14 319 0.0 6.4 0.00 0.97 0.97 94 1005.2
20260507033026 15 231 1.6 6.4 0.00 0.97 0.97 94 1004.8
20260507031515 15 155 1.6 8.0 0.00 0.97 0.97 94 1004.4
20260507030015 15 134 0.0 6.4 0.00 0.97 0.97 94 1004.4
20260507024517 15 195 1.6 11.3 0.00 0.97 0.97 94 1004.5
20260507023013 15 279 0.0 4.8 0.00 0.97 0.97 94 1004.3
20260507021519 15 229 1.6 9.7 0.00 0.97 0.97 94 1004.3
20260507020020 15 127 1.6 4.8 0.00 0.97 0.97 94 1004.6
20260507014514 15 133 0.0 4.8 0.00 0.97 0.97 94 1004.7
20260507013011 15 256 0.0 14.5 0.00 0.97 0.97 94 1004.8
20260507011516 15 274 0.0 8.0 0.00 0.97 0.97 94 1004.9
20260507010021 15 245 3.2 14.5 0.00 0.97 0.97 94 1004.9
20260507004508 15 151 1.6 16.1 0.00 0.97 0.97 95 1004.7
20260507003006 15 167 0.0 6.4 0.05 0.97 0.97 95 1004.9
20260507001507 15 182 0.0 4.8 0.18 0.97 0.97 95 1004.5
20260507000005 15 147 0.0 8.0 0.25 0.97 0.97 95 1004.5
20260506234504 15 126 0.0 4.8 0.36 0.97 0.97 95 1004.4
20260506233002 15 172 1.6 8.0 0.33 0.91 0.91 94 1004.4
20260506231600 15 166 1.6 8.0 0.28 0.81 0.81 94 1004.6
20260506230059 15 155 3.2 11.3 0.20 0.71 0.71 94 1004.6
20260506224556 15 141 3.2 9.7 0.13 0.61 0.61 94 1004.9
20260506223059 15 143 1.6 6.4 0.10 0.58 0.58 93 1005.0
20260506221554 15 151 0.0 9.7 0.08 0.53 0.53 93 1005.0
20260506220047 15 141 0.0 9.7 0.10 0.51 0.51 93 1005.1
20260506214545 15 210 1.6 9.7 0.13 0.48 0.48 93 1005.3
20260506213043 16 157 0.0 9.7 0.23 0.48 0.48 92 1005.5
20260506211540 16 252 1.6 8.0 0.30 0.46 0.46 92 1005.6
20260506210040 16 278 0.0 16.1 0.30 0.41 0.41 92 1005.7
20260506204548 16 142 0.0 4.8 0.25 0.33 0.33 92 1005.7
20260506203034 17 117 0.0 4.8 0.23 0.25 0.25 90 1005.7
20260506201535 17 193 0.0 4.8 0.15 0.15 0.15 88 1005.6
20260506200028 17 155 0.0 8.0 0.10 0.10 0.10 86 1005.6
20260506194527 18 210 1.6 16.1 0.08 0.08 0.08 83 1005.5
20260506193024 19 131 1.6 9.7 0.03 0.03 0.03 79 1005.7
20260506191523 20 299 4.8 11.3 0.00 0.00 0.00 74 1005.7
20260506190021 20 121 1.6 12.9 0.00 0.00 0.00 71 1005.7
20260506184519 21 171 3.2 16.1 0.00 0.00 0.00 70 1005.6
20260506183016 21 144 6.4 17.7 0.00 0.00 0.00 66 1005.5
20260506181520 22 11 4.8 16.1 0.00 0.00 0.00 63 1005.6
20260506180015 22 92 1.6 14.5 0.00 0.00 0.00 64 1005.9
20260506174510 22 146 8.0 22.5 0.00 0.00 0.00 62 1005.9
20260506173008 23 110 4.8 17.7 0.00 0.00 0.00 62 1005.9
20260506171510 22 132 3.2 12.9 0.00 0.00 0.00 63 1006.2
20260506170100 22 275 3.2 9.7 0.00 0.00 0.00 63 1006.5
20260506164558 22 246 4.8 16.1 0.00 0.00 0.00 63 1006.7
20260506163054 22 183 3.2 14.5 0.00 0.00 0.00 64 1006.8
20260506161602 22 301 3.2 17.7 0.00 0.00 0.00 65 1007.1
20260506160047 21 245 1.6 11.3 0.00 0.00 0.00 67 1007.6
20260506154544 21 243 4.8 20.9 0.00 0.00 0.00 67 1008.0
20260506153041 21 277 6.4 17.7 0.00 0.00 0.00 66 1008.0
20260506151559 21 148 9.7 19.3 0.00 0.00 0.00 66 1008.2
20260506150038 21 328 4.8 12.9 0.00 0.00 0.00 67 1008.3
20260506144535 21 229 6.4 17.7 0.00 0.00 0.00 68 1008.2
20260506143043 21 167 4.8 16.1 0.00 0.00 0.00 69 1008.1
20260506141530 20 174 6.4 16.1 0.00 0.00 0.00 71 1008.1
20260506140033 20 148 1.6 14.5 0.00 0.00 0.00 73 1008.1
20260506134523 19 233 4.8 14.5 0.00 0.00 0.00 74 1008.5
20260506133024 19 259 1.6 11.3 0.00 0.00 0.00 74 1008.7
20260506131525 18 159 3.2 11.3 0.00 0.00 0.00 75 1008.5
20260506130020 18 212 4.8 12.9 0.00 0.00 0.00 74 1008.7
20260506124514 18 137 4.8 12.9 0.00 0.00 0.00 76 1008.6
20260506123012 18 192 1.6 8.0 0.00 0.00 0.00 77 1008.8
20260506121511 17 162 1.6 8.0 0.00 0.00 0.00 79 1008.6
20260506120009 17 281 1.6 11.3 0.00 0.00 0.00 79 1008.9
20260506114509 17 124 3.2 19.3 0.00 0.00 0.00 80 1008.9
20260506113009 17 235 3.2 14.5 0.00 0.00 0.00 80 1009.1
20260506111509 16 172 4.8 16.1 0.00 0.00 0.00 80 1008.9